Find Starlink 32614

NORAD ID: 62428 Int'l Des: 2024-249 Owner: SPXS Country: US Constellation: starlink operational
LEOCIRCULAR

現在のビュー

3D地球を読み込み中...

About Starlink 32614

Starlink 32614 (NORAD 62428) is a starlink constellation satellite (v2 mini) launched Dec 23, 2024 by SPXS of US. It operates in LEO, CIRCULAR orbit with a mass of 730.00 kg.

Starlink 32614について

説明を読み込み中...

次回通過

Passes for default location (London). Set your location on the main map for personalized predictions.

高度履歴

Loading altitude history...

軌道要素

1 62428U 24249V 26169.91668981 -.00001809 00000-0 -56222-4 0 9996
2 62428 43.0002 110.3226 0001231 251.0356 98.7653 15.27586560 5803
Epoch: Jun 18, 2026 • Age: 8 hours

現在のステータス

高度 492.4 km
速度 7.62 km/s
衛星直下点 -34.80°S, 68.54°E
打ち上げ日 Dec 23, 2024
運用期間 1.4 years
タイプ internet

技術仕様

分類 Payload
質量 730.00 kg
乾燥質量 700.00 kg
総質量 730.00 kg
長さ 0.30 m
直径 4.10 m
スパン 29.00 m
形状 Box + pan
製造者 SPXS
バスタイプ Starlink V2M
フェーズステータス In Orbit
所有者/国 SPXS/US

Most Searched